Location: Gleizolles
(44.4833°N, 6.7667°E)
Time: 00:42:02
(UTC+00:00)

Vanguard 2 Rocket - Pass Details

Date: 19 June 2024
Orbit: 555 x 3302 km, 32.9° (Epoch: 24 July)

Event Time Altitude Azimuth Distance (km) Brightness Sun altitude
Rises 08:06:10 0° 275° (W) 6,748 10.9 42.9°
Reaches altitude 10° 08:11:52 10° 267° (W) 5,337 10.5 43.9°
Maximum altitude 08:23:30 30° 214° (SW) 2,962 9.7 46.0°
Drops below altitude 10° 08:31:05 10° 158° (SSE) 3,406 10.3 47.3°
Sets 08:33:51 0° 146° (SE) 4,050 10.7 47.8°
